カタログに戻る

STARLINK-36638

運用中通信SSO
NORAD 67594·PAYLOAD·🇺🇸 United States

打ち上げ Jan 29, 2026 から Vandenberg Space Force Base

Loading…

次のパス (今後24時間)

TLE

最新Source: CelesTrak SupGP

元期: Sep 14, 2026, 23:11 UTC

1 67594C 26018F   26257.96645833  .00019270  00000+0  59820-3 0  2576
2 67594  97.2851 321.4262 0000562  90.2706  40.8687 15.33429354    15

AllMySatでSTARLINK-36638をリアルタイム追跡

Download on the App Store